Time,TemperatureF,DewpointF,PressureIn,WindDirection,WindDirectionDegrees,WindSpeedMPH,WindSpeedGustMPH,Humidity,HourlyPrecipIn,Conditions,Clouds,dailyrainin,SoftwareType,DateUTC
2013-01-13 01:12:00,33.0,32.0,29.98,South,184,0.0,0.0,97,0.00,,,0.02,,2013-01-13 06:12:00,
2013-01-13 01:22:00,33.0,32.0,29.98,South,184,0.0,0.0,97,0.00,,,0.02,,2013-01-13 06:22:00,
2013-01-13 01:32:00,33.0,32.0,29.98,South,184,0.0,0.0,97,0.00,,,0.02,,2013-01-13 06:32:00,
2013-01-13 01:42:00,33.0,32.0,29.98,South,184,0.0,0.0,97,0.00,,,0.02,,2013-01-13 06:42:00,
2013-01-13 01:52:00,33.0,32.0,29.98,South,184,0.0,0.0,97,0.00,,,0.02,,2013-01-13 06:52:00,
2013-01-13 02:02:00,33.0,32.0,29.98,SW,226,0.0,0.0,97,0.00,,,0.02,,2013-01-13 07:02:00,
2013-01-13 02:12:00,33.0,32.0,29.98,SW,226,0.0,0.0,97,0.00,,,0.02,,2013-01-13 07:12:00,
2013-01-13 02:22:00,33.0,32.0,29.98,SW,226,0.0,0.0,97,0.00,,,0.02,,2013-01-13 07:22:00,
2013-01-13 02:32:00,33.0,32.0,29.98,SW,226,0.0,0.0,97,0.00,,,0.02,,2013-01-13 07:32:00,
2013-01-13 02:42:00,33.0,32.0,29.98,SW,226,0.0,0.0,97,0.00,,,0.02,,2013-01-13 07:42:00,
2013-01-13 02:52:00,33.0,32.0,29.98,SW,226,0.0,0.0,97,0.00,,,0.02,,2013-01-13 07:52:00,
2013-01-13 03:32:00,33.0,32.0,29.99,West,270,0.0,0.0,97,0.00,,,0.02,,2013-01-13 08:32:00,
2013-01-13 03:42:00,33.0,32.0,29.99,West,270,0.0,0.0,97,0.00,,,0.02,,2013-01-13 08:42:00,
2013-01-13 03:53:00,33.0,32.0,29.99,West,270,0.0,0.0,97,0.00,,,0.02,,2013-01-13 08:53:00,
2013-01-13 04:02:00,33.0,32.0,30.00,West,270,0.0,0.0,97,0.00,,,0.02,,2013-01-13 09:02:00,
2013-01-13 04:12:00,33.0,32.0,30.00,West,270,0.0,0.0,97,0.00,,,0.02,,2013-01-13 09:12:00,
2013-01-13 04:22:00,33.0,32.0,30.00,West,270,0.0,0.0,97,0.00,,,0.02,,2013-01-13 09:22:00,
2013-01-13 04:32:00,33.0,32.0,30.00,West,270,0.0,0.0,97,0.00,,,0.02,,2013-01-13 09:32:00,
2013-01-13 05:22:00,32.0,31.0,29.99,West,270,0.0,0.0,97,0.00,,,0.02,,2013-01-13 10:22:00,
2013-01-13 05:32:00,32.0,31.0,29.99,West,270,0.0,0.0,97,0.00,,,0.02,,2013-01-13 10:32:00,
2013-01-13 05:42:00,32.0,31.0,29.99,West,270,0.0,0.0,97,0.00,,,0.02,,2013-01-13 10:42:00,
2013-01-13 05:52:00,32.0,31.0,29.99,West,270,0.0,0.0,97,0.00,,,0.02,,2013-01-13 10:52:00,
2013-01-13 07:03:00,32.0,31.0,30.01,WSW,253,0.0,0.0,97,0.00,,,0.02,,2013-01-13 12:03:00,
2013-01-13 07:12:00,32.0,31.0,30.01,WSW,253,0.0,0.0,97,0.00,,,0.02,,2013-01-13 12:12:00,
2013-01-13 07:22:00,32.0,31.0,30.01,WSW,253,0.0,0.0,97,0.00,,,0.02,,2013-01-13 12:22:00,
2013-01-13 07:33:00,32.0,31.0,30.01,WSW,253,0.0,0.0,97,0.00,,,0.02,,2013-01-13 12:33:00,
2013-01-13 07:42:00,32.0,31.0,30.01,WSW,253,0.0,0.0,97,0.00,,,0.02,,2013-01-13 12:42:00,
2013-01-13 09:22:00,33.0,32.0,30.00,WSW,253,0.0,0.0,97,0.00,,,0.02,,2013-01-13 14:22:00,
2013-01-13 09:30:00,33.0,32.0,30.00,East,88,0.0,0.0,97,0.00,,,0.02,,2013-01-13 14:30:00,
2013-01-13 09:33:00,33.0,32.0,30.00,WSW,253,0.0,0.0,97,0.00,,,0.02,,2013-01-13 14:33:00,
2013-01-13 09:43:00,33.0,32.0,30.00,WSW,253,0.0,0.0,97,0.00,,,0.02,,2013-01-13 14:43:00,
2013-01-13 09:52:00,33.0,32.0,30.00,East,88,0.0,0.0,97,0.00,,,0.02,,2013-01-13 14:52:00,
2013-01-13 10:03:00,33.0,32.0,30.00,East,88,0.0,0.0,97,0.00,,,0.02,,2013-01-13 15:03:00,
2013-01-13 10:13:00,33.0,32.0,30.00,East,88,0.0,0.0,97,0.00,,,0.02,,2013-01-13 15:13:00,
2013-01-13 10:23:00,33.0,32.0,30.00,East,88,0.0,0.0,97,0.00,,,0.02,,2013-01-13 15:23:00,
2013-01-13 12:53:00,36.0,35.0,29.94,ENE,76,0.0,0.0,97,0.00,,,0.02,,2013-01-13 17:53:00,
2013-01-13 13:03:00,36.0,35.0,29.94,ENE,76,0.0,0.0,97,0.00,,,0.02,,2013-01-13 18:03:00,
2013-01-13 13:12:00,36.0,35.0,29.94,ENE,76,0.0,0.0,97,0.00,,,0.02,,2013-01-13 18:12:00,
2013-01-13 13:23:00,36.0,35.0,29.94,ENE,76,0.0,0.0,97,0.00,,,0.02,,2013-01-13 18:23:00,
2013-01-13 13:53:00,36.0,35.0,29.92,ESE,104,0.0,0.0,97,0.00,,,0.02,,2013-01-13 18:53:00,
2013-01-13 14:03:00,37.0,36.0,29.91,East,93,2.0,3.0,97,0.00,,,0.02,,2013-01-13 19:03:00,
2013-01-13 14:12:00,37.0,36.0,29.91,East,93,2.0,3.0,97,0.00,,,0.02,,2013-01-13 19:12:00,
2013-01-13 14:22:00,37.0,36.0,29.91,East,93,2.0,3.0,97,0.00,,,0.02,,2013-01-13 19:22:00,
2013-01-13 14:33:00,37.0,36.0,29.91,East,93,2.0,3.0,97,0.00,,,0.02,,2013-01-13 19:33:00,
2013-01-13 14:43:00,37.0,36.0,29.91,East,93,2.0,3.0,97,0.00,,,0.02,,2013-01-13 19:43:00,
2013-01-13 15:23:00,36.0,35.0,29.90,ESE,110,0.0,0.0,97,0.00,,,0.01,,2013-01-13 20:23:00,
2013-01-13 15:33:00,36.0,35.0,29.90,ESE,110,0.0,0.0,97,0.00,,,0.01,,2013-01-13 20:33:00,
2013-01-13 15:43:00,36.0,35.0,29.90,ESE,110,0.0,0.0,97,0.00,,,0.01,,2013-01-13 20:43:00,
2013-01-13 15:53:00,36.0,35.0,29.90,ESE,110,0.0,0.0,97,0.00,,,0.01,,2013-01-13 20:53:00,
2013-01-13 17:33:00,34.0,33.0,29.87,ESE,110,0.0,0.0,97,0.00,,,0.01,,2013-01-13 22:33:00,
2013-01-13 17:43:00,34.0,33.0,29.87,ESE,110,0.0,0.0,97,0.00,,,0.01,,2013-01-13 22:43:00,
2013-01-13 17:53:00,34.0,33.0,29.87,ESE,110,0.0,0.0,97,0.00,,,0.01,,2013-01-13 22:53:00,
2013-01-13 18:02:00,34.0,33.0,29.87,ESE,110,0.0,0.0,97,0.00,,,0.01,,2013-01-13 23:02:00,
2013-01-13 18:12:00,34.0,33.0,29.87,ESE,110,0.0,0.0,97,0.00,,,0.01,,2013-01-13 23:12:00,
2013-01-13 18:23:00,34.0,33.0,29.87,ESE,110,0.0,0.0,97,0.00,,,0.01,,2013-01-13 23:23:00,
2013-01-13 18:33:00,34.0,33.0,29.88,ESE,110,0.0,0.0,97,0.00,,,0.01,,2013-01-13 23:33:00,
2013-01-13 18:43:00,34.0,33.0,29.88,ESE,110,0.0,0.0,97,0.00,,,0.01,,2013-01-13 23:43:00,
2013-01-13 18:53:00,34.0,33.0,29.88,ESE,110,0.0,0.0,97,0.00,,,0.01,,2013-01-13 23:53:00,
2013-01-13 19:03:00,34.0,33.0,29.88,ESE,110,0.0,0.0,97,0.00,,,0.01,,2013-01-14 00:03:00,